| time (UTC) | temp F | wind direction | speed MPH | gust MPH | rain 1hr in | rain 24hr in | rain mn in | humidity % | barometer mb |
| 20260901232109 | 57 | 0.0 | 0.0 | 0.00 | 0.00 | 0.00 | 91 | 1027.4 | |
| 20260901231031 | 58 | 0.0 | 0.0 | 0.00 | 0.00 | 0.00 | 90 | 1027.7 | |
| 20260901225608 | 58 | 0.0 | 0.0 | 0.00 | 0.00 | 0.00 | 89 | 1027.7 | |
| 20260901224109 | 59 | 0.0 | 0.0 | 0.00 | 0.00 | 0.00 | 88 | 1027.6 | |
| 20260901222531 | 60 | 0.0 | 0.0 | 0.00 | 0.00 | 0.00 | 87 | 1027.7 | |
| 20260901221520 | 60 | 0.0 | 2.0 | 0.00 | 0.00 | 0.00 | 86 | 1027.6 | |
| 20260901220108 | 60 | 0.0 | 2.0 | 0.00 | 0.00 | 0.00 | 86 | 1027.6 | |
| 20260901214608 | 60 | 0.0 | 0.0 | 0.00 | 0.00 | 0.00 | 86 | 1027.4 | |
| 20260901213521 | 60 | 135 | 0.0 | 2.0 | 0.00 | 0.00 | 0.00 | 85 | 1027.3 |
| 20260901212056 | 61 | 0.0 | 0.0 | 0.00 | 0.00 | 0.00 | 85 | 1027.4 | |
| 20260901211031 | 61 | 0.0 | 0.0 | 0.00 | 0.00 | 0.00 | 86 | 1027.3 | |
| 20260901205608 | 61 | 0.0 | 0.0 | 0.00 | 0.00 | 0.00 | 85 | 1027.1 | |
| 20260901204108 | 61 | 0.0 | 0.0 | 0.00 | 0.00 | 0.00 | 85 | 1027.1 | |
| 20260901202556 | 61 | 0.0 | 0.0 | 0.00 | 0.00 | 0.00 | 85 | 1027.0 | |
| 20260901201520 | 62 | 0.0 | 0.0 | 0.00 | 0.00 | 0.00 | 83 | 1027.1 | |
| 20260901200107 | 63 | 0.0 | 0.0 | 0.00 | 0.00 | 0.00 | 80 | 1027.1 | |
| 20260901195032 | 63 | 243 | 1.0 | 4.0 | 0.00 | 0.00 | 0.00 | 80 | 1027.0 |
| 20260901193543 | 63 | 276 | 0.0 | 2.0 | 0.00 | 0.00 | 0.00 | 83 | 1026.9 |
| 20260901192532 | 63 | 0.0 | 2.0 | 0.00 | 0.00 | 0.00 | 84 | 1027.0 | |
| 20260901191608 | 63 | 0.0 | 0.0 | 0.00 | 0.00 | 0.00 | 84 | 1026.9 | |
| 20260901190108 | 64 | 0.0 | 0.0 | 0.00 | 0.00 | 0.00 | 82 | 1026.8 | |
| 20260901184557 | 65 | 0 | 1.0 | 2.0 | 0.00 | 0.00 | 0.00 | 79 | 1026.8 |
| 20260901183536 | 66 | 274 | 0.0 | 2.0 | 0.00 | 0.00 | 0.00 | 73 | 1026.6 |
| 20260901182531 | 67 | 219 | 1.0 | 4.0 | 0.00 | 0.00 | 0.00 | 67 | 1026.4 |
| 20260901181519 | 68 | 304 | 1.0 | 2.0 | 0.00 | 0.00 | 0.00 | 64 | 1026.3 |
| 20260901180054 | 67 | 0.0 | 0.0 | 0.00 | 0.00 | 0.00 | 64 | 1026.0 | |
| 20260901175020 | 68 | 0.0 | 0.0 | 0.00 | 0.01 | 0.00 | 63 | 1025.9 | |
| 20260901174108 | 68 | 0.0 | 2.0 | 0.00 | 0.01 | 0.00 | 63 | 1025.8 | |
| 20260901172555 | 69 | 0.0 | 0.0 | 0.00 | 0.01 | 0.00 | 62 | 1025.8 | |
| 20260901171601 | 70 | 338 | 0.0 | 2.0 | 0.00 | 0.01 | 0.00 | 62 | 1025.6 |
| 20260901170557 | 70 | 293 | 0.0 | 4.0 | 0.00 | 0.01 | 0.00 | 61 | 1025.5 |
| 20260901165608 | 71 | 302 | 0.0 | 2.0 | 0.00 | 0.01 | 0.00 | 62 | 1025.5 |
| 20260901164055 | 70 | 311 | 2.0 | 6.0 | 0.00 | 0.01 | 0.00 | 62 | 1025.5 |
| 20260901163043 | 70 | 289 | 2.0 | 7.0 | 0.00 | 0.01 | 0.00 | 62 | 1025.7 |
| 20260901162030 | 70 | 291 | 2.0 | 6.0 | 0.00 | 0.01 | 0.00 | 60 | 1025.6 |
| 20260901161018 | 70 | 280 | 3.0 | 7.0 | 0.00 | 0.01 | 0.00 | 60 | 1025.5 |
| 20260901160109 | 71 | 299 | 5.0 | 13.0 | 0.00 | 0.01 | 0.00 | 59 | 1025.6 |
| 20260901154556 | 73 | 315 | 4.0 | 8.0 | 0.00 | 0.01 | 0.00 | 57 | 1025.6 |
| 20260901153519 | 73 | 315 | 3.0 | 7.0 | 0.00 | 0.01 | 0.00 | 56 | 1025.4 |
| 20260901152108 | 74 | 311 | 4.0 | 11.0 | 0.00 | 0.01 | 0.00 | 55 | 1025.3 |
| 20260901150555 | 75 | 315 | 2.0 | 6.0 | 0.00 | 0.01 | 0.00 | 56 | 1025.4 |
| 20260901145607 | 75 | 299 | 7.0 | 14.0 | 0.00 | 0.01 | 0.00 | 55 | 1025.2 |
| 20260901144108 | 75 | 338 | 3.0 | 8.0 | 0.00 | 0.01 | 0.00 | 56 | 1025.3 |
| 20260901142556 | 75 | 323 | 5.0 | 9.0 | 0.00 | 0.01 | 0.00 | 56 | 1025.5 |
| 20260901141519 | 75 | 312 | 4.0 | 9.0 | 0.00 | 0.01 | 0.00 | 53 | 1025.6 |
| 20260901140054 | 76 | 270 | 2.0 | 4.0 | 0.00 | 0.01 | 0.00 | 52 | 1025.7 |
| 20260901135021 | 77 | 248 | 2.0 | 8.0 | 0.00 | 0.01 | 0.00 | 52 | 1025.7 |
| 20260901134108 | 74 | 281 | 2.0 | 6.0 | 0.00 | 0.01 | 0.00 | 54 | 1025.8 |
| 20260901132542 | 74 | 315 | 4.0 | 8.0 | 0.00 | 0.01 | 0.00 | 57 | 1025.8 |
| 20260901131521 | 75 | 60 | 4.0 | 11.0 | 0.00 | 0.01 | 0.00 | 56 | 1025.8 |
| 20260901130056 | 75 | 248 | 3.0 | 6.0 | 0.00 | 0.01 | 0.00 | 55 | 1025.8 |
| 20260901125107 | 75 | 336 | 4.0 | 11.0 | 0.00 | 0.01 | 0.00 | 55 | 1026.0 |
| 20260901124054 | 75 | 293 | 4.0 | 8.0 | 0.00 | 0.01 | 0.00 | 55 | 1025.9 |
| 20260901123020 | 75 | 299 | 3.0 | 11.0 | 0.00 | 0.01 | 0.00 | 54 | 1025.9 |
| 20260901122109 | 74 | 295 | 4.0 | 11.0 | 0.00 | 0.01 | 0.00 | 54 | 1026.0 |
| 20260901120555 | 74 | 327 | 2.0 | 7.0 | 0.00 | 0.01 | 0.00 | 54 | 1025.9 |
| 20260901115608 | 75 | 259 | 5.0 | 14.0 | 0.00 | 0.01 | 0.00 | 55 | 1026.1 |
| 20260901114108 | 74 | 267 | 2.0 | 11.0 | 0.00 | 0.01 | 0.00 | 56 | 1026.1 |
| 20260901112556 | 73 | 150 | 3.0 | 8.0 | 0.00 | 0.01 | 0.00 | 57 | 1026.2 |
| 20260901111519 | 72 | 198 | 3.0 | 9.0 | 0.00 | 0.01 | 0.00 | 58 | 1026.1 |
| 20260901110055 | 72 | 293 | 4.0 | 9.0 | 0.00 | 0.01 | 0.00 | 59 | 1026.2 |
| 20260901105019 | 72 | 282 | 4.0 | 13.0 | 0.00 | 0.01 | 0.00 | 60 | 1026.3 |
| 20260901104107 | 71 | 283 | 4.0 | 11.0 | 0.00 | 0.01 | 0.00 | 60 | 1026.3 |
| 20260901102554 | 71 | 260 | 5.0 | 11.0 | 0.00 | 0.01 | 0.00 | 62 | 1026.3 |
| 20260901101519 | 71 | 322 | 4.0 | 13.0 | 0.00 | 0.01 | 0.00 | 62 | 1026.3 |
| 20260901100054 | 71 | 338 | 6.0 | 9.0 | 0.00 | 0.01 | 0.00 | 63 | 1026.3 |
| 20260901095109 | 70 | 283 | 4.0 | 11.0 | 0.00 | 0.01 | 0.00 | 64 | 1026.1 |
| 20260901094055 | 70 | 248 | 2.0 | 4.0 | 0.00 | 0.01 | 0.00 | 64 | 1026.3 |
| 20260901093021 | 69 | 343 | 4.0 | 11.0 | 0.00 | 0.01 | 0.00 | 66 | 1026.3 |
| 20260901092108 | 69 | 266 | 4.0 | 11.0 | 0.00 | 0.01 | 0.00 | 66 | 1026.2 |
| 20260901090554 | 68 | 306 | 1.0 | 2.0 | 0.00 | 0.01 | 0.00 | 68 | 1026.1 |
| 20260901085543 | 67 | 289 | 3.0 | 11.0 | 0.00 | 0.01 | 0.00 | 69 | 1026.0 |
| 20260901084531 | 67 | 261 | 4.0 | 11.0 | 0.00 | 0.01 | 0.00 | 68 | 1026.1 |
| 20260901083519 | 68 | 296 | 3.0 | 11.0 | 0.00 | 0.01 | 0.00 | 67 | 1026.1 |
| 20260901082056 | 67 | 293 | 7.0 | 11.0 | 0.00 | 0.01 | 0.00 | 68 | 1026.1 |
| 20260901081020 | 67 | 313 | 4.0 | 11.0 | 0.00 | 0.01 | 0.00 | 70 | 1025.9 |
| 20260901080108 | 66 | 291 | 3.0 | 8.0 | 0.00 | 0.01 | 0.00 | 70 | 1025.8 |
| 20260901074520 | 66 | 287 | 4.0 | 13.0 | 0.00 | 0.01 | 0.00 | 71 | 1025.7 |
| 20260901073609 | 65 | 11 | 3.0 | 11.0 | 0.00 | 0.01 | 0.00 | 72 | 1025.7 |
| 20260901072556 | 65 | 293 | 5.0 | 11.0 | 0.00 | 0.01 | 0.00 | 72 | 1025.7 |
| 20260901071521 | 65 | 265 | 3.0 | 9.0 | 0.00 | 0.01 | 0.00 | 73 | 1025.7 |
| 20260901070055 | 64 | 270 | 4.0 | 13.0 | 0.00 | 0.01 | 0.00 | 74 | 1025.6 |
| 20260901065019 | 63 | 294 | 3.0 | 11.0 | 0.00 | 0.01 | 0.00 | 76 | 1025.4 |
| 20260901064107 | 63 | 267 | 3.0 | 8.0 | 0.00 | 0.01 | 0.00 | 77 | 1025.5 |
| 20260901062556 | 62 | 278 | 5.0 | 11.0 | 0.00 | 0.02 | 0.00 | 78 | 1025.4 |
| 20260901061520 | 62 | 308 | 4.0 | 8.0 | 0.00 | 0.02 | 0.00 | 78 | 1025.2 |
| 20260901060108 | 61 | 300 | 3.0 | 9.0 | 0.00 | 0.02 | 0.00 | 79 | 1025.2 |
| 20260901054519 | 60 | 282 | 2.0 | 8.0 | 0.00 | 0.05 | 0.00 | 81 | 1025.0 |
| 20260901053608 | 59 | 271 | 2.0 | 4.0 | 0.00 | 0.07 | 0.00 | 83 | 1024.9 |
| 20260901052555 | 59 | 293 | 2.0 | 4.0 | 0.00 | 0.07 | 0.00 | 83 | 1024.9 |
| 20260901051609 | 58 | 293 | 1.0 | 6.0 | 0.00 | 0.08 | 0.00 | 84 | 1024.8 |
| 20260901050108 | 58 | 309 | 2.0 | 6.0 | 0.00 | 0.08 | 0.00 | 84 | 1024.6 |
| 20260901044554 | 58 | 315 | 2.0 | 2.0 | 0.00 | 0.09 | 0.00 | 85 | 1024.6 |
| 20260901043521 | 57 | 0.0 | 2.0 | 0.00 | 0.09 | 0.00 | 87 | 1024.4 | |
| 20260901042108 | 58 | 315 | 1.0 | 4.0 | 0.00 | 0.11 | 0.00 | 85 | 1024.3 |
| 20260901040556 | 58 | 328 | 1.0 | 4.0 | 0.00 | 0.11 | 0.00 | 84 | 1024.0 |
| 20260901035609 | 58 | 286 | 2.0 | 11.0 | 0.00 | 0.11 | 0.00 | 84 | 1023.9 |
| 20260901034554 | 58 | 302 | 3.0 | 7.0 | 0.00 | 0.11 | 0.00 | 84 | 1023.8 |
| 20260901033600 | 59 | 293 | 3.0 | 7.0 | 0.00 | 0.11 | 0.00 | 83 | 1023.8 |
| 20260901032554 | 59 | 326 | 2.0 | 4.0 | 0.00 | 0.11 | 0.00 | 83 | 1023.7 |
| 20260901031519 | 59 | 313 | 3.0 | 8.0 | 0.00 | 0.11 | 0.00 | 83 | 1023.6 |
| 20260901030054 | 59 | 315 | 2.0 | 4.0 | 0.00 | 0.11 | 0.00 | 83 | 1023.6 |
| 20260901025042 | 59 | 288 | 3.0 | 7.0 | 0.00 | 0.11 | 0.00 | 82 | 1023.5 |
| 20260901024030 | 59 | 293 | 3.0 | 8.0 | 0.00 | 0.11 | 0.00 | 82 | 1023.4 |
| 20260901023019 | 59 | 289 | 3.0 | 8.0 | 0.00 | 0.11 | 0.00 | 82 | 1023.4 |
| 20260901022109 | 59 | 311 | 4.0 | 8.0 | 0.00 | 0.11 | 0.00 | 82 | 1023.4 |
| 20260901020555 | 59 | 270 | 5.0 | 11.0 | 0.00 | 0.11 | 0.00 | 82 | 1023.2 |
| 20260901015607 | 59 | 285 | 3.0 | 8.0 | 0.00 | 0.11 | 0.00 | 82 | 1023.3 |
| 20260901014555 | 59 | 315 | 2.0 | 4.0 | 0.00 | 0.11 | 0.00 | 82 | 1023.2 |
| 20260901013532 | 59 | 278 | 4.0 | 11.0 | 0.00 | 0.11 | 0.00 | 81 | 1023.2 |
| 20260901012518 | 60 | 299 | 3.0 | 8.0 | 0.00 | 0.11 | 0.00 | 81 | 1023.1 |
| 20260901011607 | 60 | 316 | 3.0 | 7.0 | 0.00 | 0.11 | 0.00 | 81 | 1023.2 |
| 20260901010554 | 60 | 293 | 4.0 | 7.0 | 0.00 | 0.11 | 0.00 | 80 | 1023.0 |
| 20260901005543 | 60 | 318 | 3.0 | 9.0 | 0.00 | 0.11 | 0.00 | 80 | 1023.2 |
| 20260901004533 | 60 | 304 | 3.0 | 8.0 | 0.00 | 0.11 | 0.00 | 79 | 1023.2 |
| 20260901003521 | 60 | 296 | 3.0 | 7.0 | 0.00 | 0.11 | 0.00 | 79 | 1022.9 |
| 20260901002031 | 60 | 295 | 3.0 | 7.0 | 0.00 | 0.11 | 0.00 | 81 | 1022.9 |
| 20260901001019 | 59 | 315 | 3.0 | 9.0 | 0.00 | 0.11 | 0.00 | 82 | 1023.0 |
| 20260901000108 | 59 | 315 | 4.0 | 9.0 | 0.00 | 0.11 | 0.00 | 82 | 1023.0 |
| 20260831235031 | 59 | 311 | 2.0 | 6.0 | 0.00 | 0.11 | 0.00 | 83 | 1022.8 |
| 20260831233543 | 59 | 245 | 2.0 | 7.0 | 0.00 | 0.11 | 0.00 | 83 | 1023.0 |
| 20260831232533 | 59 | 309 | 2.0 | 6.0 | 0.00 | 0.11 | 0.00 | 83 | 1023.1 |